Wetbulb
69.23 71.76 72.65 73.37 73.25 72.98 73.54 73.21 73.04 73.36 73.80 73.82 73.61 73.57 73.32 73.24 72.91 72.78 72.45 72.23 72.10 71.53 71.17 70.86 70.45 70.35 69.98 70.06 69.59 69.52 69.68 70.52 71.19 72.50 72.77 71.48 71.46 71.27 72.08 71.01 70.25 68.97 70.49
70.27 71.83 72.17 73.05 73.42 73.70 73.72 73.40 73.33 73.40 73.84 73.87 73.47 73.46 73.09 72.74 72.65 72.51 72.25 72.21 71.85 71.15 70.71 70.74 70.01 69.54 69.20 69.28 69.04 69.10 69.64 69.75 69.79 70.68 72.17 71.35 70.90 71.19 70.99 71.11 70.82 70.22 70.44
70.35 71.59 71.90 72.30 73.29 73.67 73.76 73.91 73.60 73.94 73.97 73.82 73.44 73.15 72.88 72.63 72.27 72.43 72.36 72.23 72.15 71.46 70.91 70.38 69.84 69.39 69.02 68.41 68.32 68.88 69.31 69.66 69.71 69.73 70.19 68.02 68.90 71.06 71.35 70.97 71.10 70.78 70.12
70.52 71.24 71.37 72.03 72.64 73.15 73.28 73.43 73.58 73.80 73.79 73.29 73.03 72.87 72.43 72.53 72.43 72.75 72.56 71.86 71.72 70.67 69.73 69.20 68.78 69.02 67.70 67.36 68.70 69.10 69.46 69.60 69.86 69.49 67.98 63.49 69.20 70.99 70.89 70.45 70.26 70.48 70.16
70.01 71.29 71.76 71.33 72.04 72.78 72.88 73.12 73.16 73.11 72.84 72.48 72.19 72.42 72.44 72.75 72.10 71.22 71.15 70.72 70.83 69.92 69.25 69.15 68.03 66.60 65.17 66.84 68.50 68.67 69.02 69.57 69.24 69.10 67.20 66.21 68.37 69.82 70.35 69.72 69.26 69.32 69.01
70.39 71.28 70.65 70.94 71.66 72.35 72.72 72.78 72.67 72.30 71.69 71.50 71.83 72.59 72.71 72.33 70.93 70.15 70.08 70.25 70.63 70.08 69.09 68.10 66.44 64.40 63.72 66.27 68.09 68.00 68.17 68.75 68.36 67.61 67.77 68.65 68.19 69.68 69.08 68.51 68.13 67.97 68.07
69.58 70.59 70.94 70.31 71.23 72.09 72.61 72.53 72.11 71.47 71.18 71.49 71.92 71.65 71.77 71.76 70.68 69.48 68.82 68.98 69.14 68.71 67.74 66.28 64.14 62.76 63.06 65.70 67.47 66.98 66.82 67.37 65.23 65.67 66.71 67.10 68.05 68.98 68.60 67.76 66.86 66.76 66.75
69.09 69.90 70.58 71.10 70.89 71.22 71.77 71.55 70.88 70.51 70.37 70.49 70.65 70.78 70.83 70.20 69.26 68.60 68.08 67.85 67.30 66.65 65.25 63.62 63.35 62.87 63.05 65.92 66.60 65.75 65.29 66.53 64.67 64.04 64.86 66.50 68.07 67.62 67.00 65.88 65.02 64.77 65.10
68.73 68.62 69.03 70.25 70.77 70.49 70.13 69.95 69.19 69.37 69.32 69.72 69.75 69.62 69.14 68.50 68.39 67.97 67.14 65.91 65.48 65.09 63.70 62.99 63.37 63.64 64.04 65.47 65.29 64.96 64.35 65.57 62.01 62.97 65.32 65.52 66.81 66.16 65.18 64.29 63.92 63.45 63.39
67.91 67.61 67.53 67.91 68.95 68.63 68.97 68.87 68.60 68.39 68.55 68.85 68.78 68.13 67.30 67.11 67.00 66.07 65.16 64.86 64.89 64.21 63.40 63.72 63.64 64.41 64.50 64.54 64.26 64.10 64.26 65.30 61.24 63.51 63.60 64.02 65.53 64.93 63.84 62.82 61.93 61.79 61.83
67.16 66.80 66.90 67.35 67.91 68.12 67.85 68.87 68.47 68.65 68.23 67.80 67.64 67.01 64.88 64.04 63.24 62.86 63.05 64.24 64.59 64.36 64.11 64.27 63.99 64.02 63.49 63.22 63.42 63.55 62.79 61.42 61.71 61.83 62.03 63.92 63.16 62.61 61.99 60.92 60.43 60.73 61.05
64.52 65.63 67.02 67.03 67.52 67.93 69.34 67.46 66.29 67.33 66.20 65.30 64.40 63.50 63.61 63.13 60.02 61.39 62.46 64.07 64.60 63.93 64.25 64.13 63.91 63.49 62.62 58.56 58.62 61.88 58.42 59.40 60.50 60.42 60.61 62.31 61.54 60.88 60.90 60.38 60.06 60.08 60.52
64.39 65.85 67.35 67.57 66.82 67.58 67.72 67.21 66.89 66.03 64.90 63.87 63.06 62.35 64.06 63.42 61.15 59.02 59.03 60.11 58.85 62.05 60.25 61.73 61.03 60.09 58.96 58.37 57.79 56.38 59.31 59.61 59.25 58.96 60.41 61.42 60.76 60.39 60.15 59.51 59.69 59.88 59.69
64.83 65.80 66.78 66.93 66.16 65.74 67.12 67.04 67.26 66.58 65.59 65.08 63.41 62.53 62.00 60.93 59.08 58.23 56.77 56.77 56.93 57.04 56.34 57.14 57.00 57.95 57.68 57.67 55.11 58.40 56.97 55.97 55.92 56.52 59.16 60.22 59.82 59.46 59.79 59.76 59.05 59.10 59.05
64.12 65.24 66.72 67.31 66.58 67.63 67.46 66.65 66.83 66.70 65.81 64.90 63.77 63.44 62.26 61.61 59.60 59.28 57.05 55.93 55.65 54.79 54.08 54.03 53.91 55.53 55.50 55.63 55.51 57.29 55.22 53.79 53.73 54.35 55.57 58.79 58.79 58.37 59.11 59.44 58.88 58.92 58.52
64.93 64.62 65.68 67.73 68.39 67.13 66.59 66.37 65.14 64.58 63.37 62.23 61.58 61.36 60.67 60.76 60.18 59.86 58.81 57.21 55.86 54.38 53.73 53.43 53.44 52.93 53.74 54.38 55.27 55.18 53.85 52.82 52.24 51.94 52.33 54.02 56.77 56.71 57.80 58.52 59.61 58.72 58.20
65.01 65.31 64.76 66.43 68.30 67.30 66.79 65.63 64.85 64.22 63.58 62.20 60.79 60.17 60.12 60.14 59.80 59.69 58.66 57.56 57.12 56.12 55.19 53.62 52.84 55.02 53.48 54.03 53.69 54.66 53.14 51.83 50.87 49.94 49.50 50.24 51.85 55.27 56.19 57.01 57.45 58.85 58.59
65.04 64.69 65.20 66.46 66.83 66.48 66.23 65.99 65.39 64.83 63.57 62.42 60.66 59.73 59.12 59.42 59.46 58.23 57.42 56.51 55.94 55.71 55.10 55.41 54.73 54.19 53.27 53.21 51.71 54.20 52.88 51.81 50.07 48.54 48.29 47.95 47.58 48.15 53.21 55.31 55.86 57.48 58.43
64.48 64.69 64.89 65.00 64.78 64.24 64.06 64.61 64.83 64.03 63.21 62.41 61.27 59.55 58.69 58.89 58.90 57.41 56.08 56.20 56.06 55.29 54.32 54.54 53.60 54.71 53.75 52.81 52.90 51.21 53.12 51.59 49.85 48.97 46.44 45.21 45.05 45.18 47.19 53.56 54.08 54.94 56.44
63.12 64.80 64.94 64.58 63.55 63.06 62.85 62.67 63.21 62.75 62.18 62.11 61.32 59.83 59.12 58.41 58.42 58.10 56.79 55.66 55.48 54.85 54.45 54.65 54.03 53.29 54.43 53.57 54.13 51.31 50.53 49.37 49.53 47.09 46.37 46.06 44.07 44.59 45.06 46.07 46.51 49.81 54.06
60.94 64.61 63.98 62.62 61.85 61.71 60.45 60.17 60.78 60.89 60.65 60.75 60.81 60.63 58.52 58.18 57.81 57.73 57.08 55.33 55.27 54.57 54.43 54.04 53.66 52.99 52.98 53.68 50.44 48.66 47.38 46.07 46.89 46.48 45.52 44.98 45.09 45.57 44.34 44.24 44.42 44.97 48.01
58.52 62.29 62.76 62.55 61.80 61.72 60.31 58.57 58.75 58.59 58.36 58.85 59.26 59.51 59.77 58.42 57.92 57.54 56.63 55.65 54.91 54.91 53.85 53.55 53.18 52.53 53.73 53.29 50.13 48.39 44.31 44.79 45.57 45.27 44.20 44.38 42.40 43.71 43.53 45.00 43.97 42.97 42.80
56.22 56.94 58.14 59.79 60.13 59.01 57.92 54.75 52.93 52.68 52.44 52.75 53.75 53.62 53.99 57.24 58.23 57.10 55.60 54.49 53.63 54.44 53.67 52.94 52.82 52.09 52.03 53.00 51.86 49.02 43.22 41.13 42.61 44.70 42.61 44.07 42.46 41.79 41.77 41.82 42.49 43.31 42.96
54.45 55.29 56.33 57.09 57.57 57.08 54.99 53.96 53.95 51.89 50.61 49.98 48.88 49.01 47.50 48.24 48.66 48.86 48.85 48.59 48.51 48.85 50.38 51.13 53.34 51.78 51.79 50.99 50.63 50.37 48.15 45.24 40.55 39.25 42.41 43.11 43.11 41.67 41.18 42.78 41.17 40.91 41.08
53.88 53.60 53.75 54.28 55.13 54.66 53.75 52.78 51.79 52.51 49.45 47.24 46.78 46.74 46.87 46.80 46.79 47.45 47.51 47.96 47.69 47.75 48.41 48.92 49.46 50.52 50.98 50.78 49.81 48.45 47.13 46.03 43.92 41.71 38.04 39.87 42.18 42.18 41.77 41.56 40.56 39.56 40.36
51.18 52.51 53.07 53.33 53.10 52.95 51.82 51.34 51.09 51.14 48.98 46.90 45.67 45.65 45.60 45.75 45.82 46.06 46.62 46.47 46.83 47.15 47.23 47.60 48.13 48.81 49.09 49.50 50.26 49.01 47.50 44.67 43.03 41.56 39.86 39.73 39.34 40.37 41.36 41.27 40.11 39.43 39.28
MSLP
1011.75 1011.53 1011.60 1011.90 1012.20 1012.53 1012.74 1013.05 1013.22 1013.30 1013.50 1014.02 1014.34 1014.67 1015.08 1014.98 1014.90 1015.54 1015.98 1016.19 1016.48 1016.56 1016.71 1017.01 1017.20 1017.23 1017.33 1017.27 1017.23 1017.23 1017.47 1017.70 1017.79 1017.66 1017.64 1017.72 1017.83 1017.87 1017.89 1018.09 1018.15 1018.29 1018.35
1011.24 1011.52 1011.61 1011.73 1012.08 1012.51 1012.81 1013.12 1013.33 1013.38 1013.63 1014.12 1014.50 1014.90 1015.28 1015.32 1015.21 1015.46 1015.91 1016.27 1016.46 1016.76 1016.99 1017.16 1017.39 1017.54 1017.51 1017.47 1017.49 1017.49 1017.61 1017.89 1018.03 1018.13 1017.96 1017.82 1017.94 1018.09 1018.39 1018.48 1018.49 1018.54 1018.52
1011.14 1011.41 1011.64 1012.01 1012.19 1012.32 1012.73 1013.27 1013.54 1013.60 1013.85 1014.33 1014.84 1015.00 1015.45 1015.52 1015.62 1015.68 1015.88 1016.21 1016.50 1016.74 1016.93 1017.19 1017.44 1017.70 1017.90 1017.87 1017.80 1017.91 1017.82 1017.77 1017.91 1018.10 1018.27 1018.40 1018.39 1018.25 1018.44 1018.74 1018.79 1018.80 1018.81
1010.92 1011.47 1011.95 1012.30 1012.54 1012.67 1012.89 1013.26 1013.64 1013.88 1014.05 1014.40 1014.84 1015.14 1015.50 1015.64 1015.82 1015.91 1016.17 1016.45 1016.57 1016.82 1017.03 1017.25 1017.37 1017.67 1017.95 1018.13 1018.13 1018.09 1017.97 1017.85 1017.85 1017.90 1018.13 1018.88 1018.75 1018.68 1018.63 1018.89 1019.08 1018.98 1019.02
1010.87 1011.34 1011.83 1012.11 1012.53 1012.71 1012.89 1013.20 1013.50 1013.71 1014.04 1014.40 1014.85 1015.12 1015.55 1015.75 1016.01 1016.22 1016.24 1016.62 1016.86 1016.85 1016.97 1017.34 1017.61 1017.73 1017.82 1017.91 1018.11 1018.17 1018.08 1018.09 1017.86 1017.92 1018.33 1018.73 1018.97 1019.03 1019.04 1019.29 1019.42 1019.40 1019.34
1010.81 1011.36 1011.93 1012.25 1012.41 1012.66 1012.89 1013.13 1013.51 1013.74 1014.03 1014.41 1014.82 1015.26 1015.45 1015.82 1016.00 1016.32 1016.59 1016.77 1017.01 1017.02 1017.06 1017.42 1017.62 1017.74 1017.76 1017.85 1017.92 1018.02 1018.14 1018.06 1018.29 1018.49 1018.57 1018.98 1019.25 1019.33 1019.57 1019.81 1019.90 1019.78 1019.74
1010.83 1011.37 1011.82 1012.21 1012.53 1012.85 1013.08 1013.33 1013.56 1013.78 1014.21 1014.49 1014.73 1015.02 1015.30 1015.68 1015.98 1016.40 1016.79 1016.97 1017.31 1017.48 1017.54 1017.78 1017.80 1017.72 1017.71 1017.79 1017.88 1018.02 1018.19 1018.29 1018.64 1018.93 1019.03 1019.29 1019.46 1019.57 1019.66 1020.03 1020.20 1020.25 1020.19
1010.85 1011.42 1011.84 1012.28 1012.71 1013.16 1013.31 1013.48 1013.76 1014.16 1014.47 1014.78 1015.18 1015.32 1015.62 1015.81 1016.20 1016.56 1017.00 1017.33 1017.62 1017.82 1017.96 1017.98 1018.11 1018.07 1017.87 1017.92 1017.77 1018.01 1018.34 1018.51 1018.79 1019.01 1019.54 1019.71 1019.89 1019.92 1020.11 1020.19 1020.47 1020.42 1020.46
1010.84 1011.47 1012.08 1012.46 1012.85 1013.12 1013.27 1013.57 1013.88 1014.19 1014.53 1014.84 1015.26 1015.61 1015.92 1015.94 1016.39 1016.88 1017.22 1017.41 1017.60 1017.67 1017.89 1017.88 1017.95 1018.20 1018.10 1018.03 1017.90 1017.84 1018.33 1018.69 1018.88 1019.05 1019.69 1019.79 1020.28 1020.39 1020.63 1020.60 1020.68 1020.84 1020.77
1011.40 1011.66 1012.12 1012.47 1012.70 1013.28 1013.51 1013.76 1014.08 1014.43 1014.84 1015.04 1015.26 1015.64 1016.01 1016.22 1016.65 1017.11 1017.41 1017.56 1017.80 1017.97 1018.05 1018.32 1018.23 1018.05 1017.99 1018.07 1018.16 1018.26 1018.51 1018.46 1018.94 1019.37 1019.55 1019.89 1020.35 1020.61 1020.91 1020.97 1021.18 1021.11 1021.14
1011.65 1011.98 1012.19 1012.50 1012.79 1013.20 1013.66 1013.90 1014.28 1014.54 1014.74 1015.06 1015.46 1015.90 1015.99 1016.20 1016.56 1017.07 1017.40 1017.45 1017.71 1017.91 1018.07 1018.17 1018.28 1018.29 1018.08 1018.03 1018.07 1018.46 1018.66 1019.25 1019.15 1019.79 1020.04 1020.03 1020.44 1020.81 1021.17 1021.40 1021.42 1021.32 1021.27
1011.31 1011.59 1011.55 1012.01 1012.34 1012.69 1013.15 1013.78 1014.47 1014.84 1015.25 1015.56 1015.83 1016.16 1016.15 1016.49 1016.90 1017.13 1017.21 1017.38 1017.79 1018.07 1018.17 1018.17 1018.13 1018.24 1018.12 1018.14 1018.06 1018.81 1018.99 1019.50 1019.94 1020.34 1020.43 1020.56 1021.06 1021.37 1021.44 1021.48 1021.63 1021.68 1021.53
1011.09 1011.53 1011.61 1011.95 1012.27 1012.67 1013.14 1013.79 1014.40 1014.82 1015.12 1015.37 1015.41 1015.64 1015.63 1016.10 1016.49 1017.25 1017.68 1017.79 1017.98 1018.04 1018.37 1018.47 1018.55 1018.21 1018.11 1018.01 1017.94 1018.90 1019.41 1019.77 1020.19 1020.30 1020.65 1020.87 1021.53 1021.78 1021.92 1021.97 1021.88 1021.68 1021.81
1010.78 1011.48 1011.79 1012.14 1012.68 1012.87 1013.27 1013.61 1013.94 1014.46 1014.95 1015.33 1015.64 1015.82 1015.94 1015.92 1016.17 1016.76 1017.37 1017.65 1017.91 1018.09 1018.25 1018.28 1018.55 1018.61 1018.47 1018.04 1017.89 1018.77 1019.41 1019.98 1019.97 1020.17 1020.51 1020.85 1021.61 1022.05 1022.20 1022.14 1022.13 1022.06 1021.94
1009.94 1010.54 1011.04 1011.37 1011.62 1011.92 1012.23 1012.81 1013.38 1013.90 1014.34 1014.74 1015.22 1015.46 1015.74 1015.99 1016.20 1016.18 1016.58 1017.21 1017.64 1017.86 1018.30 1018.13 1018.00 1018.20 1018.67 1018.39 1018.52 1019.06 1019.67 1020.14 1020.36 1020.56 1020.84 1021.07 1021.56 1022.20 1022.18 1022.25 1022.35 1022.28 1022.24
1009.31 1009.82 1010.27 1010.86 1011.40 1011.81 1012.69 1013.19 1013.45 1013.69 1014.14 1014.47 1014.86 1015.15 1015.45 1015.73 1015.95 1016.06 1016.34 1016.45 1016.98 1017.35 1017.77 1017.95 1018.00 1018.10 1018.24 1018.42 1018.94 1019.34 1019.92 1020.36 1020.68 1020.98 1021.28 1021.66 1021.76 1022.25 1022.57 1022.55 1022.43 1022.38 1022.38
1008.58 1009.12 1009.65 1010.21 1011.13 1012.00 1012.39 1012.77 1013.31 1013.70 1014.20 1014.49 1014.62 1014.90 1015.11 1015.40 1015.62 1015.87 1016.09 1016.28 1016.30 1016.67 1017.06 1017.49 1017.76 1017.75 1018.00 1018.05 1018.76 1019.48 1020.09 1020.57 1021.08 1021.40 1021.72 1021.94 1022.14 1022.63 1022.58 1022.78 1022.83 1022.64 1022.51
1007.96 1008.50 1008.85 1009.41 1010.33 1011.13 1011.65 1012.32 1012.86 1013.45 1013.88 1014.25 1014.70 1014.96 1015.14 1015.35 1015.46 1015.54 1015.95 1015.98 1015.94 1016.24 1016.62 1016.99 1017.33 1017.67 1017.77 1017.91 1018.62 1019.35 1020.02 1020.58 1021.26 1021.56 1021.81 1022.15 1022.25 1022.79 1022.85 1022.92 1022.87 1022.95 1022.70
1007.57 1008.05 1009.00 1009.94 1010.89 1011.43 1012.07 1012.46 1012.71 1013.26 1013.84 1014.09 1014.39 1014.86 1014.99 1015.14 1015.32 1015.45 1015.49 1015.72 1015.91 1016.18 1016.46 1016.69 1016.69 1016.80 1017.37 1017.92 1018.31 1019.07 1019.76 1020.41 1020.90 1021.29 1021.82 1022.37 1022.98 1023.28 1023.38 1023.28 1023.35 1023.36 1023.16
1007.17 1007.92 1009.16 1010.20 1011.09 1011.91 1012.45 1012.74 1013.06 1013.24 1013.57 1013.83 1014.14 1014.51 1014.89 1014.90 1015.03 1015.25 1015.44 1015.65 1015.81 1016.06 1016.24 1016.65 1016.47 1016.48 1016.65 1017.28 1017.83 1018.76 1019.47 1019.90 1020.28 1020.90 1021.66 1022.08 1022.82 1023.27 1023.64 1023.98 1024.12 1023.86 1023.83
1008.26 1008.95 1010.14 1010.80 1011.56 1012.14 1012.75 1013.25 1013.27 1013.44 1013.61 1013.99 1013.87 1013.94 1014.44 1014.77 1014.78 1014.95 1015.11 1015.28 1015.43 1015.77 1016.10 1016.41 1016.43 1016.48 1016.50 1016.73 1017.93 1019.11 1019.88 1020.08 1020.24 1020.89 1021.40 1021.97 1022.41 1022.90 1023.43 1023.78 1024.19 1024.44 1024.82
1009.74 1010.23 1010.66 1011.25 1011.85 1012.32 1012.73 1013.15 1013.31 1013.29 1013.43 1013.44 1013.53 1013.63 1013.86 1014.14 1014.41 1014.61 1014.78 1014.97 1015.31 1015.65 1015.69 1016.01 1015.78 1016.25 1016.43 1016.32 1016.74 1018.19 1019.55 1020.53 1020.53 1020.57 1021.14 1021.76 1022.42 1022.99 1023.38 1023.68 1024.32 1024.53 1025.29
1010.56 1011.01 1011.29 1011.52 1011.85 1012.22 1012.57 1013.16 1013.59 1013.78 1013.82 1013.73 1013.71 1013.80 1013.90 1013.69 1013.73 1013.86 1014.37 1014.65 1014.99 1015.00 1015.48 1015.71 1015.60 1015.82 1015.95 1016.04 1015.61 1015.49 1017.86 1019.01 1019.97 1020.93 1021.24 1021.82 1022.34 1022.85 1023.47 1023.98 1024.50 1024.78 1025.24
1010.89 1011.19 1011.41 1011.50 1012.00 1012.62 1013.02 1013.56 1014.01 1014.18 1014.35 1014.30 1014.33 1014.39 1014.61 1014.50 1014.36 1014.43 1014.50 1014.83 1014.92 1015.41 1015.08 1015.24 1015.66 1015.83 1016.04 1016.65 1016.58 1015.99 1015.85 1016.64 1018.65 1020.90 1021.62 1022.17 1022.80 1022.99 1023.34 1024.31 1025.12 1025.59 1025.45
1011.24 1011.69 1012.09 1012.03 1012.20 1012.47 1012.76 1013.16 1013.74 1014.12 1014.44 1014.58 1014.67 1014.75 1014.92 1015.11 1015.00 1015.07 1015.10 1015.04 1015.37 1015.22 1015.49 1015.92 1015.51 1015.68 1015.85 1016.30 1016.92 1016.96 1017.31 1016.63 1017.61 1019.05 1020.95 1022.29 1023.35 1023.58 1023.53 1024.21 1025.32 1026.03 1026.33
1011.23 1011.55 1011.72 1011.74 1011.87 1012.05 1012.44 1012.87 1013.27 1013.61 1014.01 1014.37 1014.52 1014.82 1014.98 1015.12 1015.21 1015.19 1015.26 1015.27 1015.47 1015.37 1015.63 1015.85 1015.88 1015.68 1015.51 1016.19 1016.72 1017.27 1017.68 1017.09 1017.68 1018.89 1020.42 1022.14 1023.14 1024.17 1024.00 1024.67 1025.57 1026.15 1026.71
Wind_Speed
7 12 16 15 13 14 13 13 14 17 17 16 15 15 13 14 17 15 13 13 12 13 12 11 10 11 10 10 10 11 10 10 11 11 14 15 14 15 17 13 13 12 14
16 13 17 16 15 14 14 14 15 16 17 16 15 14 12 12 14 15 13 12 12 12 11 11 10 9 9 9 8 7 10 11 9 8 11 12 13 15 16 14 13 11 14
14 13 14 15 15 16 16 15 15 16 17 16 14 14 12 12 11 12 12 11 11 13 12 10 10 9 8 8 7 8 8 8 7 5 7 4 6 14 15 15 12 14 15
14 10 10 14 14 14 15 15 15 16 16 15 13 13 11 11 10 10 12 12 12 11 9 9 8 8 7 7 7 8 6 5 4 5 6 6 6 12 16 16 15 15 15
13 12 12 15 14 14 15 15 15 15 15 14 13 14 12 12 14 13 12 10 9 9 8 8 6 6 5 5 6 6 8 8 10 10 9 5 4 12 17 17 16 18 17
14 13 12 14 15 16 16 16 15 15 14 14 13 12 13 13 14 12 9 8 8 8 8 7 6 5 4 4 4 5 8 14 15 11 10 9 7 16 18 17 17 17 17
12 12 14 14 15 15 15 15 14 14 13 13 14 14 13 12 13 11 7 7 4 4 6 6 5 5 4 4 2 6 9 14 10 9 10 8 10 17 19 19 17 17 17
12 11 12 15 14 13 13 13 12 12 12 12 11 11 10 11 11 8 6 5 5 5 5 5 3 3 4 3 2 3 5 12 11 11 7 8 14 17 17 18 16 15 16
12 11 8 10 11 12 12 11 11 12 12 11 11 11 11 13 11 9 6 6 6 7 6 6 5 3 3 3 3 2 4 11 7 8 9 8 17 18 15 16 16 14 15
7 9 9 7 7 6 6 11 11 11 10 12 13 13 12 13 10 8 5 5 6 6 6 4 5 6 5 4 4 4 6 14 10 9 8 9 16 15 14 16 12 13 13
7 7 7 7 7 7 6 7 9 12 14 14 13 13 10 6 6 7 7 8 7 8 7 7 7 6 6 5 5 2 5 6 9 6 5 17 16 14 13 12 13 13 13
8 8 11 11 10 9 8 7 6 7 5 4 5 6 4 5 5 6 6 9 9 8 8 8 8 7 6 3 1 6 4 8 7 6 7 18 16 12 13 13 13 13 15
7 7 10 10 8 9 7 6 4 4 4 4 7 6 7 5 5 4 3 3 3 7 3 4 4 3 4 4 2 6 10 7 6 6 10 18 13 12 12 12 13 15 14
10 10 7 8 6 6 5 6 7 6 5 5 5 6 3 4 6 7 4 5 4 3 5 5 3 4 6 4 3 11 10 7 6 6 9 17 14 11 11 12 13 13 15
12 11 11 10 9 7 9 7 7 7 6 6 6 6 4 3 6 8 7 6 5 5 4 4 5 5 5 5 5 11 11 10 9 7 7 18 17 11 9 12 11 13 14
14 11 8 9 10 8 7 7 5 6 5 4 4 5 6 4 4 4 6 7 7 6 5 5 5 5 5 4 10 10 11 9 10 10 7 9 17 13 9 9 10 12 13
15 14 12 10 10 9 8 9 6 5 5 5 5 5 5 4 5 4 4 5 7 6 8 6 5 4 5 4 8 9 9 11 10 10 7 6 10 12 11 11 9 9 14
16 17 15 11 14 13 11 9 7 6 6 6 5 5 6 7 6 5 4 5 5 4 4 6 5 5 5 5 5 8 8 9 10 10 9 7 7 4 9 13 9 11 11
11 15 13 9 8 7 5 5 7 7 6 5 5 5 7 8 6 5 4 4 4 3 3 5 4 7 6 5 6 7 8 9 10 9 10 9 6 5 3 12 12 12 12
8 14 8 6 8 4 4 4 3 3 3 4 5 5 7 7 8 7 5 5 4 3 3 5 6 4 8 9 8 6 8 5 7 9 9 8 7 6 5 5 4 5 12
11 12 8 10 6 4 2 2 1 3 3 2 4 7 8 8 9 9 5 4 6 8 9 8 4 5 5 9 7 4 4 7 11 9 9 9 10 9 7 6 3 4 4
13 9 8 8 8 5 3 2 2 3 3 3 4 5 9 9 9 9 9 7 5 6 7 10 6 4 4 10 10 8 5 2 3 8 7 7 7 6 7 8 7 7 3
10 8 8 7 7 5 5 3 3 3 3 1 1 2 2 6 10 10 8 6 4 8 9 6 6 8 9 9 13 9 8 6 9 2 6 7 7 5 4 7 9 9 7
6 7 6 7 8 6 6 4 1 1 2 1 2 3 4 6 5 5 6 5 5 3 3 1 2 4 1 4 3 4 5 9 7 6 3 6 6 8 6 8 9 8 9
7 6 5 6 6 6 6 5 2 2 1 1 1 2 2 3 5 5 5 5 4 3 4 5 3 5 3 3 3 3 1 6 6 11 9 6 5 3 5 7 8 6 8
6 7 7 7 7 7 7 6 6 5 4 2 2 2 1 1 1 2 3 3 2 3 3 2 3 3 5 5 4 3 2 5 5 9 10 6 8 2 4 5 7 8 7
Wind_Direction
137 136 124 121 120 129 124 123 120 119 120 119 115 112 110 110 111 106 101 101 100 97 94 82 70 62 58 60 66 74 70 61 52 64 75 75 77 67 80 75 78 74 68
141 142 130 128 127 124 125 126 128 129 124 123 119 116 116 115 112 113 111 111 106 100 91 83 69 57 56 53 51 59 65 60 56 55 88 90 84 79 78 76 77 76 71
133 138 133 132 130 130 130 132 135 131 125 124 127 124 123 118 119 118 119 124 115 105 100 92 77 58 42 33 26 37 61 79 89 101 93 75 82 91 86 72 77 78 71
131 132 132 128 127 128 131 134 131 129 129 129 132 127 131 128 128 111 106 106 113 110 101 97 90 77 55 23 24 28 31 66 75 111 122 78 61 90 90 80 68 75 66
136 136 142 137 134 132 132 134 137 135 135 135 137 137 141 124 118 113 107 110 116 117 112 108 95 87 74 54 37 21 22 13 68 84 115 99 61 77 77 76 70 68 64
145 144 143 141 138 141 144 145 140 139 142 141 141 140 136 136 121 109 107 106 119 125 128 132 136 128 112 80 61 47 23 84 83 80 84 88 95 94 85 77 71 69 66
133 146 148 146 147 149 149 147 143 143 142 140 141 146 148 137 123 112 104 105 112 126 133 151 152 143 139 121 101 70 48 91 95 92 87 85 94 95 91 81 73 69 65
136 144 151 151 151 155 154 150 146 145 142 138 142 132 131 126 111 121 139 143 111 134 149 152 155 156 151 141 161 92 89 111 101 95 87 99 98 94 89 88 75 72 70
135 134 142 152 157 161 158 150 147 147 147 142 131 121 118 114 121 125 138 159 157 150 162 157 149 163 170 184 218 185 95 113 110 108 104 97 94 88 83 77 75 71 71
128 140 145 148 145 149 158 150 153 154 143 135 128 124 131 114 117 123 166 165 161 161 159 159 155 160 171 207 232 271 49 132 111 102 104 102 95 86 82 76 86 84 81
129 147 150 148 149 150 150 162 151 148 145 141 138 143 131 131 139 159 179 174 168 159 160 163 170 181 186 211 237 38 58 104 97 100 96 97 86 79 85 92 84 84 89
165 181 171 165 168 165 163 146 143 149 135 135 130 156 143 148 160 168 178 167 166 157 168 177 182 197 191 205 231 81 71 98 93 97 95 92 93 98 101 95 95 89 85
181 178 177 168 169 164 153 151 149 146 147 151 159 179 174 158 153 133 134 131 138 160 175 188 218 213 218 197 187 99 100 108 112 105 101 98 100 100 93 90 88 93 92
175 173 179 162 160 166 139 164 162 162 164 165 181 195 208 153 150 153 162 167 168 182 188 188 204 247 261 256 188 119 115 116 115 107 108 106 98 94 90 95 103 97 95
171 161 175 171 174 174 147 152 153 163 166 174 178 183 182 182 180 165 172 170 178 182 199 202 191 195 253 274 111 122 119 116 108 101 98 98 104 98 101 110 105 104 98
166 177 169 165 175 146 143 144 145 146 149 143 155 180 192 187 197 180 179 181 181 183 191 199 202 197 197 177 112 119 123 116 108 106 103 104 105 103 91 91 76 117 111
172 175 182 159 140 144 141 149 160 169 164 169 173 184 191 214 198 210 199 189 187 181 188 195 202 192 162 153 122 131 128 127 122 117 110 108 102 102 104 101 74 102 122
163 176 183 172 160 162 161 160 164 174 174 177 174 181 197 210 208 199 201 202 193 185 185 194 186 191 165 155 137 147 140 139 139 137 130 118 107 113 109 105 102 70 127
181 170 175 157 154 148 139 144 157 161 174 177 174 192 197 207 205 201 196 211 203 205 212 207 199 180 166 163 156 135 154 151 154 143 134 125 126 116 101 116 108 83 72
56 163 131 122 116 114 108 107 108 139 152 179 183 191 212 213 212 205 215 202 202 217 251 249 204 193 172 164 158 131 139 131 139 141 146 142 138 135 127 93 86 62 68
54 89 92 109 127 139 95 106 159 190 170 189 198 196 198 210 216 222 218 195 198 206 223 228 229 206 167 163 130 109 76 127 133 136 138 145 153 153 143 127 122 84 64
55 80 93 117 129 150 129 144 177 163 198 180 189 195 204 202 207 206 207 211 220 247 227 222 193 198 219 180 167 140 153 113 142 144 140 133 136 132 148 150 131 109 103
64 72 88 94 113 111 127 91 46 17 8 360 298 332 8 217 205 200 210 206 189 203 216 221 221 212 211 210 183 158 154 181 145 156 148 140 139 123 117 114 123 111 101
84 78 84 86 89 98 83 63 34 246 252 318 30 29 23 32 57 71 99 93 83 20 89 67 257 178 51 227 223 219 155 134 153 157 133 142 135 133 127 113 113 120 110
111 107 101 98 106 125 127 137 126 285 27 13 47 62 73 53 54 62 65 82 78 63 82 15 95 128 99 119 195 207 340 152 132 148 150 144 125 142 121 120 123 109 101
146 162 175 175 183 166 157 169 180 203 192 232 209 221 213 123 50 59 82 80 109 102 96 88 88 62 116 123 184 137 304 157 143 149 135 135 131 99 116 91 113 121 116